GLOBALSTAR M004 DEB, 43356

Orbit data source: Space-Track

GLOBALSTAR M004 DEB, 43356 is space debris in LEO originally from a launch on Sat, 14 Feb 1998 UTC launched from the Air Force Eastern Test Range (AFETR). Debris objects in space refer to the collection of defunct objects orbiting the Earth. Examples of debris include non-operational satellites, rocket bodies, and fragments generated from explosions, collisions, or faulty payload assembly.

Loading next visibility...
Identifier
43356, 1998-008G
Orbit
LEO
Country
Flag of USUS
Related business
Manufacturer
Unknown
Mission
Spacecraft
Bus & Motor
Unknown
Mass
Unknown
Launch date (UTC)
1998-02-14 (28 years ago)
Launch vehicle
Unknown
Launch site
Air Force Eastern Test Range (AFETR)
Object type
Payload
Rocket body
Debris
Shape & HBR
Unknown shape, 0.1 m
Radar Cross Section
Small (<0.1 m²)

Expand to show TLE details & history
Last TLE update: 20 hours ago

TLE from 20 hours ago
0 GLOBALSTAR M004 DEB
1 43356U 98008G   25304.61821321  .00000924  00000-0  46089-2 0  9998
2 43356  51.9010  92.5874 0052660  94.8506 265.8382 12.78351512456054
Epoch: 2025-10-31T14:50Z
TLE epoch observation values (Epoch: 2025-10-31T14:50:13.621Z)
Latitude
-0.00003°
Longitude
-170.12944°
Altitude
1,351.949 km
Speed
7.182 km/s
True Right ascension
06h 10m 20s
True Declination
0° 00' 00"
Sunlit
Object was in daylight at epoch
Visualization orbit readout
Latitude
Unknown
Longitude
Unknown
Altitude
Unknown
Speed
Unknown
Apparent Right ascension
Unknown
Apparent Declination
Unknown
Sunlit
N/A
Visualization observer readout
Local Sidereal Time
06:48:54
Azimuth
Unknown
Elevation
Unknown
Doppler factor
Unknown
Orbital elements
Apogee altitude
1,389.204 km
Perigee altitude
1,307.827 km
Semi-major axis
7,726.652 km
Eccentricity
0.00527
Inclination
51.901°
RAAN
92.5874°
Arg. of periapsis
94.8506°
True anomaly
265.23665°
Mean anomaly
265.8382°
Eccentric anomaly
265.5374°
Mean motion
3.19563 °/min
Orbital period
112.65 mins
BSTAR
0.0046089
Loading maneuver chart data...
Computing Atmospheric mass density...
Loading historical data...
Loading historical data...
Loading historical data...
Loading historical data...
Loading historical data...
Loading historical data...
Loading historical data...

Documentation

Showing up to 5 results
|